THOR ABLESTAR DEB, 48828

Orbit data source: Space-Track

THOR ABLESTAR DEB, 48828 is space debris in LEO originally from a launch on Thu, 29 Jun 1961 UTC launched from the Air Force Eastern Test Range (AFETR). Debris objects in space refer to the collection of defunct objects orbiting the Earth. Examples of debris include non-operational satellites, rocket bodies, and fragments generated from explosions, collisions, or faulty payload assembly.

Loading next visibility...
Identifier
48828, 1961-015NG
Orbit
LEO
Country
Flag of USUS
Related business
Manufacturer
Unknown
Mission
Spacecraft
Bus & Motor
Unknown
Mass
Unknown
Launch date (UTC)
1961-06-29 (65 years ago)
Launch vehicle
Unknown
Launch site
Air Force Eastern Test Range (AFETR)
Object type
Payload
Rocket body
Debris
Shape & HBR
Unknown shape, 0.1 m
Radar Cross Section
Small (<0.1 m²)

Expand to show TLE details & history
Last TLE update: 2 days ago

TLE from 2 days ago
0 THOR ABLESTAR DEB
1 48828U 61015NG  26205.92915162  .00000052  00000-0  96424-4 0  9999
2 48828  66.7616  25.8829 0052492 104.5256  46.2929 13.94063880644696
Epoch: 2026-07-24T22:17Z
TLE epoch observation values (Epoch: 2026-07-24T22:17:58.699Z)
Latitude
26.27431°
Longitude
-83.43352°
Altitude
890.437 km
Speed
7.423 km/s
True Right ascension
12h 54m 50s
True Declination
26° 08' 26"
Sunlit
Object was in daylight at epoch
Visualization orbit readout
Latitude
Unknown
Longitude
Unknown
Altitude
Unknown
Speed
Unknown
Apparent Right ascension
Unknown
Apparent Declination
Unknown
Sunlit
N/A
Visualization observer readout
Local Sidereal Time
05:35:07
Azimuth
Unknown
Elevation
Unknown
Doppler factor
Unknown
Orbital elements
Apogee altitude
951.091 km
Perigee altitude
874.547 km
Semi-major axis
7,290.956 km
Eccentricity
0.00525
Inclination
66.7616°
RAAN
25.8829°
Arg. of periapsis
104.5256°
True anomaly
46.7297°
Mean anomaly
46.2929°
Eccentric anomaly
46.5111°
Mean motion
3.48631 °/min
Orbital period
103.26 mins
BSTAR
0.000096424

Documentation

Showing up to 5 results
|